Hourly Data Report for October 27, 2015

All times are specified in Local Standard Time (LST). Add 1 hour to adjust for Daylight Saving Time where and when it is observed.

BATHURST A
NEW BRUNSWICK

47°37'47.000" N
65°44'20.000" W
58.80 m
8100505
71574
ZBF

Download Data

Hourly Data (October 2015)
Hourly Data Report for October 27, 2015
Temp Definition
°C
Dew Point Temp Definition
°C
Rel Hum Definition
%
Wind Dir Definition
10's deg

Wind Spd Definition
km/h
Visibility Definition
km
Stn Press Definition
kPa
Hmdx Definition


Wind Chill Definition


Weather Definition


TIME
00:00 Legend Double Dagger -3.5 -8.4 69 24 8 24.1 102.26   -7 LegendNANA
01:00 Legend Double Dagger -4.3 -8.6 72 23 8 24.1 102.29   -8 LegendNANA
02:00 Legend Double Dagger -3.4 -8.1 70 27 10 24.1 102.29   -7 Clear
03:00 Legend Double Dagger -2.1 -8.0 64 30 7 24.1 102.29   -5 LegendNANA
04:00 Legend Double Dagger -1.9 -7.6 65 29 9 24.1 102.31   -5 LegendNANA
05:00 Legend Double Dagger -4.7 -8.0 78 24 10 24.1 102.33   -9 Clear
06:00 Legend Double Dagger -2.9 -7.4 71 27 12 24.1 102.34   -7 LegendNANA
07:00 Legend Double Dagger -2.5 -7.4 69 28 15 24.1 102.30   -7 LegendNANA
08:00 Legend Double Dagger -2.2 -6.8 71 26 12 24.1 102.36   -6 Clear
09:00 Legend Double Dagger 0.3 -7.3 57 27 18 24.1 102.39     LegendNANA
10:00 Legend Double Dagger 2.5 -6.6 51 26 19 24.1 102.37     LegendNANA
11:00 Legend Double Dagger 4.2 -6.7 45 27 25 24.1 102.31     Clear
12:00 Legend Double Dagger 5.4 -7.8 38 27 25 24.1 102.22     LegendNANA
13:00 Legend Double Dagger 6.4 -8.0 35 28 20 24.1 102.15     LegendNANA
14:00 Legend Double Dagger 6.5 -7.2 37 27 25 24.1 102.07     Clear
15:00 Legend Double Dagger 7.0 -6.7 37 25 25 24.1 102.04     LegendNANA
16:00 Legend Double Dagger 7.1 -7.0 36 27 30 24.1 102.02     LegendNANA
17:00 Legend Double Dagger 6.4 -5.6 42 27 21 24.1 102.04     Mostly Cloudy
18:00 Legend Double Dagger 5.0 -5.4 47 22 12 24.1 101.98     LegendNANA
19:00 Legend Double Dagger 3.2 -5.0 55 21 8 24.1 102.00     LegendNANA
20:00 Legend Double Dagger 4.9 -3.9 53 30 11 24.1 102.11     Mostly Cloudy
21:00 Legend Double Dagger 4.2 -2.2 63 30 18 24.1 102.23     LegendNANA
22:00 Legend Double Dagger 3.5 -6.8 47 29 18 24.1 102.33     LegendNANA
23:00 Legend Double Dagger 2.6 -7.1 49 29 13 24.1 102.36     Clear

Notes on Data Quality.

Legend

  • E = Estimated
  • M = Missing
  • NA = Not Available
  • ‡ = Partner data that is not subject to review by the National Climate Archives
Date modified: